KLM1048 EGBB-EHAM

Flight info

Callsign KLM1048
Flight time 0h 44m
Altitude 31000
Route UNGAP P155 SIVDA P137 REDFA
Aircraft A21N/M-SDE2E3FGHIRWXY/LB1

Departure

Time 2026-05-06 12:46
Airport Birmingham Airport (EGBB)

Arrival

Time 2026-05-06 13:30
Airport Amsterdam Airport Schiphol (EHAM)
Time Latitude Longitude Altitude Speed Heading
2026-05-06 12:31 52.45449 -1.73423 335 ft 0 kts 146°
2026-05-06 12:33 52.45457 -1.73431 330 ft 4 kts 147°
2026-05-06 12:34 52.45480 -1.73455 330 ft 4 kts 152°
2026-05-06 12:34 52.45504 -1.73471 332 ft 4 kts 171°
2026-05-06 12:34 52.45525 -1.73468 332 ft 3 kts 232°
2026-05-06 12:34 52.45527 -1.73464 330 ft 0 kts 235°
2026-05-06 12:39 52.45520 -1.73481 333 ft 4 kts 235°
2026-05-06 12:39 52.45501 -1.73525 334 ft 5 kts 235°
2026-05-06 12:40 52.45481 -1.73573 333 ft 5 kts 234°
2026-05-06 12:40 52.45459 -1.73625 331 ft 6 kts 236°
2026-05-06 12:40 52.45436 -1.73682 333 ft 6 kts 237°
2026-05-06 12:40 52.45407 -1.73753 335 ft 12 kts 236°
2026-05-06 12:41 52.45342 -1.73907 330 ft 18 kts 235°
2026-05-06 12:41 52.45320 -1.74076 333 ft 14 kts 268°
2026-05-06 12:41 52.45248 -1.74123 332 ft 17 kts 152°
2026-05-06 12:41 52.45131 -1.74002 329 ft 23 kts 144°
2026-05-06 12:42 52.44991 -1.73844 333 ft 26 kts 146°
2026-05-06 12:42 52.44855 -1.73701 330 ft 18 kts 161°
2026-05-06 12:42 52.44722 -1.73728 333 ft 21 kts 167°
2026-05-06 12:42 52.44595 -1.73603 336 ft 22 kts 146°
2026-05-06 12:43 52.44463 -1.73456 348 ft 21 kts 146°
2026-05-06 12:43 52.44372 -1.73446 358 ft 6 kts 221°
2026-05-06 12:43 52.44370 -1.73450 358 ft 0 kts 224°
2026-05-06 12:44 52.44365 -1.73458 358 ft 4 kts 225°
2026-05-06 12:44 52.44338 -1.73515 357 ft 9 kts 236°
2026-05-06 12:44 52.44342 -1.73644 347 ft 15 kts 319°
2026-05-06 12:45 52.44453 -1.73771 337 ft 36 kts 325°
2026-05-06 12:45 52.44844 -1.74202 330 ft 100 kts 326°
2026-05-06 12:45 52.46561 -1.76143 725 ft 172 kts 328°
2026-05-06 12:46 52.47492 -1.77342 1500 ft 173 kts 309°
2026-05-06 12:46 52.47803 -1.79309 2001 ft 196 kts 261°
2026-05-06 12:46 52.47093 -1.81353 2241 ft 227 kts 218°
2026-05-06 12:46 52.45571 -1.82223 2737 ft 241 kts 175°
2026-05-06 12:47 52.44018 -1.81328 3490 ft 239 kts 138°
2026-05-06 12:47 52.42758 -1.79541 4298 ft 242 kts 139°
2026-05-06 12:47 52.41326 -1.78035 5087 ft 247 kts 152°
2026-05-06 12:47 52.39707 -1.77004 5702 ft 254 kts 163°
2026-05-06 12:48 52.38015 -1.76175 6001 ft 263 kts 153°
2026-05-06 12:48 52.36548 -1.74290 6429 ft 276 kts 123°
2026-05-06 12:48 52.35776 -1.71432 7127 ft 277 kts 101°
2026-05-06 12:48 52.35544 -1.69341 7668 ft 278 kts 94°
2026-05-06 12:49 52.35442 -1.66200 8462 ft 283 kts 87°
2026-05-06 12:49 52.35499 -1.62912 9291 ft 288 kts 84°
2026-05-06 12:49 52.35611 -1.59646 10086 ft 294 kts 84°
2026-05-06 12:49 52.35726 -1.56210 10545 ft 313 kts 85°
2026-05-06 12:50 52.35821 -1.52512 10856 ft 336 kts 86°
2026-05-06 12:50 52.35886 -1.48566 11157 ft 357 kts 87°
2026-05-06 12:50 52.35923 -1.44412 11685 ft 369 kts 88°
2026-05-06 12:50 52.35940 -1.40173 12436 ft 376 kts 88°
2026-05-06 12:51 52.35948 -1.35859 13166 ft 382 kts 89°
2026-05-06 12:51 52.35955 -1.31542 13977 ft 385 kts 89°
2026-05-06 12:51 52.35960 -1.27138 14687 ft 390 kts 89°
2026-05-06 12:51 52.35968 -1.22671 15328 ft 395 kts 89°
2026-05-06 12:52 52.35975 -1.18162 16068 ft 398 kts 89°
2026-05-06 12:52 52.35983 -1.13585 16727 ft 403 kts 89°
2026-05-06 12:52 52.35990 -1.08969 17381 ft 407 kts 89°
2026-05-06 12:52 52.35995 -1.04315 18062 ft 411 kts 89°
2026-05-06 12:53 52.35999 -0.99674 18610 ft 415 kts 89°
2026-05-06 12:53 52.36000 -0.94913 19115 ft 420 kts 90°
2026-05-06 12:53 52.36000 -0.90120 19675 ft 423 kts 90°
2026-05-06 12:53 52.35998 -0.85276 20180 ft 428 kts 90°
2026-05-06 12:54 52.35993 -0.80392 20794 ft 429 kts 90°
2026-05-06 12:54 52.35986 -0.75482 21313 ft 434 kts 90°
2026-05-06 12:54 52.35976 -0.70530 21835 ft 437 kts 90°
2026-05-06 12:54 52.35963 -0.65539 22390 ft 440 kts 90°
2026-05-06 12:55 52.35949 -0.60498 22850 ft 444 kts 90°
2026-05-06 12:55 52.35933 -0.55425 23359 ft 447 kts 90°
2026-05-06 12:55 52.35915 -0.50314 23790 ft 450 kts 91°
2026-05-06 12:55 52.35894 -0.45170 24187 ft 453 kts 91°
2026-05-06 12:56 52.35872 -0.40000 24599 ft 455 kts 91°
2026-05-06 12:56 52.35848 -0.34878 24987 ft 458 kts 91°
2026-05-06 12:56 52.35821 -0.29659 25409 ft 459 kts 91°
2026-05-06 12:56 52.35791 -0.24405 25780 ft 462 kts 91°
2026-05-06 12:57 52.35759 -0.19134 26144 ft 464 kts 91°
2026-05-06 12:57 52.35724 -0.13833 26518 ft 466 kts 91°
2026-05-06 12:57 52.35687 -0.08513 26845 ft 469 kts 91°
2026-05-06 12:57 52.35648 -0.03168 27207 ft 470 kts 91°
2026-05-06 12:58 52.35539 0.02184 27567 ft 471 kts 97°
2026-05-06 12:58 52.35150 0.07497 28046 ft 469 kts 98°
2026-05-06 12:58 52.34722 0.12703 28568 ft 466 kts 98°
2026-05-06 12:58 52.34270 0.17951 28973 ft 466 kts 98°
2026-05-06 12:59 52.33809 0.23193 29410 ft 465 kts 99°
2026-05-06 12:59 52.33345 0.28424 29870 ft 463 kts 99°
2026-05-06 12:59 52.32878 0.33642 30178 ft 464 kts 99°
2026-05-06 12:59 52.32408 0.38857 30547 ft 462 kts 99°
2026-05-06 13:00 52.31937 0.44056 30868 ft 462 kts 99°
2026-05-06 13:00 52.31462 0.49265 30969 ft 465 kts 99°
2026-05-06 13:00 52.30984 0.54478 30977 ft 462 kts 99°
2026-05-06 13:01 52.30026 0.64866 30980 ft 462 kts 99°
2026-05-06 13:01 52.29064 0.75182 30983 ft 462 kts 99°
2026-05-06 13:02 52.28088 0.85551 30978 ft 461 kts 99°
2026-05-06 13:02 52.27103 0.95915 30967 ft 461 kts 99°
2026-05-06 13:03 52.26113 1.06245 30966 ft 459 kts 99°
2026-05-06 13:03 52.25122 1.16477 30965 ft 459 kts 100°
2026-05-06 13:04 52.24116 1.26765 30965 ft 459 kts 100°
2026-05-06 13:04 52.23099 1.37063 30963 ft 459 kts 100°
2026-05-06 13:05 52.22075 1.47344 30963 ft 459 kts 100°
2026-05-06 13:05 52.21050 1.57553 30963 ft 458 kts 101°
2026-05-06 13:06 52.20008 1.67824 30965 ft 458 kts 101°
2026-05-06 13:06 52.19485 1.72946 30813 ft 458 kts 101°
2026-05-06 13:06 52.18958 1.78078 30563 ft 458 kts 101°
2026-05-06 13:06 52.18437 1.83141 30317 ft 459 kts 101°
2026-05-06 13:07 52.17905 1.88275 30061 ft 460 kts 101°
2026-05-06 13:07 52.17372 1.93406 29321 ft 458 kts 101°
2026-05-06 13:07 52.16838 1.98524 28466 ft 458 kts 101°
2026-05-06 13:07 52.16302 2.03637 27642 ft 457 kts 101°
2026-05-06 13:08 52.15768 2.08711 27103 ft 451 kts 101°
2026-05-06 13:08 52.15240 2.13708 26519 ft 445 kts 101°
2026-05-06 13:08 52.14715 2.18652 25897 ft 441 kts 101°
2026-05-06 13:08 52.14192 2.23556 25295 ft 437 kts 102°
2026-05-06 13:09 52.13677 2.28364 24704 ft 434 kts 102°
2026-05-06 13:09 52.13157 2.33198 24109 ft 431 kts 102°
2026-05-06 13:09 52.12640 2.37987 23505 ft 428 kts 102°
2026-05-06 13:09 52.12142 2.42760 22815 ft 426 kts 99°
2026-05-06 13:10 52.12075 2.47566 22508 ft 427 kts 84°
2026-05-06 13:10 52.12825 2.52252 22176 ft 431 kts 66°
2026-05-06 13:10 52.14210 2.56574 21797 ft 430 kts 60°
2026-05-06 13:10 52.15740 2.60778 21420 ft 429 kts 59°
2026-05-06 13:11 52.17269 2.64924 21046 ft 426 kts 59°
2026-05-06 13:11 52.18783 2.69056 20664 ft 424 kts 59°
2026-05-06 13:11 52.20284 2.73182 20291 ft 421 kts 59°
2026-05-06 13:11 52.21749 2.77232 19925 ft 419 kts 59°
2026-05-06 13:12 52.23223 2.81320 19556 ft 416 kts 59°
2026-05-06 13:12 52.24684 2.85386 19192 ft 414 kts 59°
2026-05-06 13:12 52.26138 2.89440 18832 ft 412 kts 59°
2026-05-06 13:12 52.27581 2.93473 18468 ft 410 kts 59°
2026-05-06 13:13 52.29016 2.97490 18081 ft 407 kts 59°
2026-05-06 13:13 52.30440 3.01483 17687 ft 405 kts 59°
2026-05-06 13:13 52.31834 3.05398 17349 ft 402 kts 59°
2026-05-06 13:13 52.33236 3.09342 16993 ft 401 kts 59°
2026-05-06 13:14 52.34634 3.13281 16649 ft 398 kts 59°
2026-05-06 13:14 52.36018 3.17187 16285 ft 396 kts 58°
2026-05-06 13:14 52.37397 3.21084 15952 ft 394 kts 59°
2026-05-06 13:14 52.38765 3.24957 15603 ft 391 kts 58°
2026-05-06 13:15 52.40126 3.28816 15260 ft 390 kts 58°
2026-05-06 13:15 52.41475 3.32645 14918 ft 386 kts 59°
2026-05-06 13:15 52.42800 3.36413 14583 ft 385 kts 59°
2026-05-06 13:15 52.44113 3.40203 14240 ft 382 kts 62°
2026-05-06 13:16 52.45086 3.44249 13926 ft 382 kts 73°
2026-05-06 13:16 52.45751 3.48447 13571 ft 378 kts 76°
2026-05-06 13:16 52.46346 3.52638 13225 ft 377 kts 76°
2026-05-06 13:16 52.46934 3.56825 12895 ft 374 kts 76°
2026-05-06 13:17 52.47516 3.60959 12560 ft 371 kts 76°
2026-05-06 13:17 52.48098 3.65081 12232 ft 369 kts 76°
2026-05-06 13:17 52.48668 3.69108 12014 ft 354 kts 76°
2026-05-06 13:17 52.49207 3.72925 11762 ft 341 kts 76°
2026-05-06 13:18 52.49735 3.76669 11458 ft 331 kts 75°
2026-05-06 13:18 52.50247 3.80297 11150 ft 321 kts 75°
2026-05-06 13:18 52.50740 3.83810 10870 ft 312 kts 75°
2026-05-06 13:18 52.51220 3.87225 10581 ft 303 kts 76°
2026-05-06 13:19 52.51687 3.90554 10323 ft 295 kts 75°
2026-05-06 13:19 52.52136 3.93825 10059 ft 292 kts 77°
2026-05-06 13:19 52.52243 3.97142 9832 ft 293 kts 97°
2026-05-06 13:19 52.51701 4.00372 9700 ft 293 kts 109°
2026-05-06 13:20 52.50961 4.03485 9574 ft 292 kts 111°
2026-05-06 13:20 52.50199 4.06523 9461 ft 291 kts 112°
2026-05-06 13:20 52.49166 4.09384 9339 ft 293 kts 126°
2026-05-06 13:20 52.47861 4.11934 9071 ft 291 kts 131°
2026-05-06 13:21 52.46446 4.14292 8808 ft 289 kts 135°
2026-05-06 13:21 52.44972 4.16485 8457 ft 285 kts 137°
2026-05-06 13:21 52.43480 4.18634 7912 ft 286 kts 137°
2026-05-06 13:21 52.41992 4.20789 7475 ft 284 kts 136°
2026-05-06 13:22 52.40562 4.22876 7123 ft 278 kts 136°
2026-05-06 13:22 52.39146 4.24955 6894 ft 267 kts 136°
2026-05-06 13:22 52.37794 4.26946 6701 ft 257 kts 135°
2026-05-06 13:22 52.36481 4.28882 6409 ft 251 kts 134°
2026-05-06 13:23 52.35201 4.30772 6113 ft 245 kts 135°
2026-05-06 13:23 52.33959 4.32604 5839 ft 236 kts 134°
2026-05-06 13:23 52.32760 4.34374 5480 ft 234 kts 133°
2026-05-06 13:23 52.31555 4.36155 5029 ft 233 kts 134°
2026-05-06 13:24 52.30353 4.37927 4590 ft 232 kts 133°
2026-05-06 13:24 52.29159 4.39684 4155 ft 230 kts 134°
2026-05-06 13:24 52.27970 4.41435 3702 ft 229 kts 133°
2026-05-06 13:24 52.26787 4.43176 3267 ft 228 kts 134°
2026-05-06 13:25 52.25611 4.44903 2866 ft 226 kts 133°
2026-05-06 13:25 52.24438 4.46623 2464 ft 226 kts 133°
2026-05-06 13:25 52.23271 4.48338 2097 ft 226 kts 134°
2026-05-06 13:25 52.22171 4.50144 1988 ft 220 kts 120°
2026-05-06 13:26 52.21753 4.52293 2019 ft 184 kts 88°
2026-05-06 13:26 52.21861 4.54224 2005 ft 169 kts 74°
2026-05-06 13:26 52.22201 4.56048 1989 ft 168 kts 64°
2026-05-06 13:26 52.22735 4.57669 1998 ft 154 kts 57°
2026-05-06 13:27 52.23283 4.59111 1993 ft 146 kts 55°
2026-05-06 13:27 52.23828 4.60521 1918 ft 147 kts 55°
2026-05-06 13:27 52.24358 4.61907 1737 ft 139 kts 56°
2026-05-06 13:27 52.24845 4.63176 1534 ft 129 kts 56°
2026-05-06 13:28 52.25315 4.64394 1355 ft 126 kts 55°
2026-05-06 13:28 52.25782 4.65607 1176 ft 127 kts 55°
2026-05-06 13:28 52.26252 4.66826 1003 ft 126 kts 55°
2026-05-06 13:28 52.26720 4.68043 828 ft 127 kts 55°
2026-05-06 13:29 52.27191 4.69265 661 ft 126 kts 55°
2026-05-06 13:29 52.27655 4.70468 484 ft 125 kts 57°
2026-05-06 13:29 52.28120 4.71676 330 ft 125 kts 58°
2026-05-06 13:29 52.28577 4.72863 162 ft 122 kts 59°
2026-05-06 13:30 52.29060 4.74121 36 ft 137 kts 59°
2026-05-06 13:30 52.29510 4.75302 1 ft 88 kts 59°
2026-05-06 13:30 52.29734 4.75765 1 ft 42 kts 33°
2026-05-06 13:30 52.29904 4.75909 2 ft 6 kts 25°
2026-05-06 13:31 52.29947 4.75948 2 ft 14 kts 29°
2026-05-06 13:31 52.30024 4.76081 2 ft 19 kts 56°
2026-05-06 13:31 52.30115 4.76314 2 ft 29 kts 58°
2026-05-06 13:31 52.30161 4.76433 3 ft 4 kts 58°
2026-05-06 13:32 52.30235 4.76626 2 ft 26 kts 58°
2026-05-06 13:32 52.30330 4.76870 2 ft 25 kts 57°
2026-05-06 13:32 52.30441 4.77032 2 ft 20 kts 341°
2026-05-06 13:32 52.30551 4.76926 2 ft 18 kts 328°
2026-05-06 13:33 52.30625 4.76797 3 ft 1 kts 308°
2026-05-06 13:33 52.30625 4.76759 2 ft 7 kts 252°
2026-05-06 13:33 52.30604 4.76729 2 ft 7 kts 211°
2026-05-06 13:33 52.30581 4.76703 2 ft 3 kts 214°
2026-05-06 13:34 52.30576 4.76698 2 ft 0 kts 214°